This demonstration page uses our WeatherBlox Daily Observations layout. Learn more.

Left ArrowRight Arrow

53.62937, 11.41316

Hourly Observations for May 29, 2021

Temp ( °F °C ) Dew Point ( °F °C ) Humidity (%) Winds ( mph kmh ) Pressure ( in mb ) Visibility ( mi km ) Precip ( " mm )
7:50 am 07:50 Mostly Cloudy 48 9 45 7 87 87 VRB 2 4 30.24 1024 30 48 N/A
8:20 am 08:20 Mostly Cloudy 48 9 45 7 87 87 WSW 3 6 30.27 1025 30 48 N/A
8:50 am 08:50 Mostly Cloudy 48 9 45 7 87 87 WSW 5 7 30.27 1025 30 48 N/A
9:20 am 09:20 Mostly Cloudy 48 9 45 7 87 87 VRB 3 6 30.27 1025 30 48 N/A
9:50 am 09:50 Mostly Cloudy 48 9 45 7 87 87 VRB 2 4 30.27 1025 30 48 N/A
10:20 am 10:20 Mostly Cloudy 50 10 45 7 82 82 VRB 2 4 30.27 1025 30 48 N/A
10:50 am 10:50 Mostly Cloudy 50 10 45 7 82 82 VRB 3 6 30.30 1026 30 48 N/A
11:20 am 11:20 Mostly Cloudy 50 10 45 7 82 82 WSW 3 6 30.30 1026 30 48 N/A
11:50 am 11:50 Mostly Cloudy 52 11 45 7 77 77 VRB 3 6 30.30 1026 30 48 N/A
12:20 pm 12:20 Mostly Cloudy 54 12 45 7 72 72 WSW 6 9 30.30 1026 30 48 N/A
12:50 pm 12:50 Mostly Cloudy 54 12 45 7 72 72 WSW 6 9 30.30 1026 30 48 N/A
1:20 pm 13:20 Partly Cloudy 55 13 46 8 72 72 VRB 7 11 30.30 1026 30 48 N/A
1:50 pm 13:50 Partly Cloudy 55 13 45 7 67 67 VRB 5 7 30.30 1026 30 48 N/A
2:20 pm 14:20 Partly Cloudy 57 14 46 8 67 67 VRB 5 7 30.30 1026 30 48 N/A
2:50 pm 14:50 Mostly Sunny 59 15 48 9 68 68 SW 8 13 30.30 1026 30 48 N/A
3:20 pm 15:20 Mostly Sunny 61 16 46 8 59 59 SW 6 9 30.30 1026 30 48 N/A
3:50 pm 15:50 Mostly Sunny 61 16 48 9 63 63 VRB 5 7 30.30 1026 30 48 N/A
4:20 pm 16:20 Mostly Sunny 61 16 46 8 59 59 WSW 6 9 30.30 1026 30 48 N/A
4:50 pm 16:50 Mostly Sunny 63 17 48 9 59 59 VRB 5 7 30.30 1026 30 48 N/A
5:20 pm 17:20 Mostly Sunny 63 17 48 9 59 59 VRB 5 7 30.30 1026 30 48 N/A
5:50 pm 17:50 Mostly Sunny 63 17 48 9 59 59 WSW 6 9 30.30 1026 30 48 N/A
6:20 pm 18:20 Mostly Sunny 63 17 46 8 56 56 WSW 7 11 30.30 1026 30 48 N/A
6:50 pm 18:50 Mostly Sunny 63 17 48 9 59 59 WSW 5 7 30.30 1026 30 48 N/A
7:20 pm 19:20 Mostly Sunny 63 17 48 9 59 59 W 3 6 30.30 1026 7 11 N/A
7:50 pm 19:50 Mostly Sunny 63 17 48 9 59 59 WSW 3 6 30.30 1026 7 11 N/A
8:20 pm 20:20 Mostly Sunny 61 16 48 9 63 63 WSW 3 6 30.30 1026 7 11 N/A
8:50 pm 20:50 Mostly Sunny 59 15 48 9 68 68 VRB 2 4 30.30 1026 7 11 N/A

Powered by AerisWeather